| time (UTC) | temp C | wind direction | speed KPH | gust KPH | rain 1hr cm | rain 24hr cm | rain mn cm | humidity % | barometer mb |
| 20260510021520 | 15 | 263 | 0.0 | 0.0 | 0.00 | 0.08 | 0.08 | 76 | 1027.5 |
| 20260510020018 | 15 | 281 | 0.0 | 0.0 | 0.00 | 0.08 | 0.08 | 79 | 1027.7 |
| 20260510014529 | 15 | 281 | 0.0 | 0.0 | 0.00 | 0.08 | 0.08 | 84 | 1027.9 |
| 20260510013028 | 15 | 281 | 0.0 | 0.0 | 0.00 | 0.08 | 0.08 | 85 | 1028.0 |
| 20260510011527 | 14 | 281 | 0.0 | 0.0 | 0.00 | 0.08 | 0.08 | 87 | 1028.1 |
| 20260510010026 | 14 | 281 | 0.0 | 0.0 | 0.00 | 0.08 | 0.08 | 89 | 1028.2 |
| 20260510004522 | 13 | 281 | 0.0 | 0.0 | 0.00 | 0.08 | 0.08 | 91 | 1028.2 |
| 20260510003033 | 13 | 281 | 0.0 | 0.0 | 0.00 | 0.08 | 0.08 | 92 | 1028.1 |
| 20260510001521 | 13 | 281 | 0.0 | 0.0 | 0.00 | 0.08 | 0.08 | 93 | 1028.2 |
| 20260510000030 | 13 | 281 | 0.0 | 0.0 | 0.00 | 0.08 | 0.08 | 93 | 1028.2 |
| 20260509234537 | 13 | 281 | 0.0 | 0.0 | 0.00 | 0.08 | 0.08 | 94 | 1028.2 |
| 20260509233030 | 13 | 281 | 0.0 | 0.0 | 0.00 | 0.08 | 0.08 | 94 | 1028.1 |
| 20260509231526 | 13 | 281 | 0.0 | 0.0 | 0.00 | 0.08 | 0.08 | 94 | 1028.1 |
| 20260509230022 | 13 | 281 | 0.0 | 0.0 | 0.00 | 0.08 | 0.08 | 94 | 1027.9 |
| 20260509224519 | 12 | 281 | 0.0 | 0.0 | 0.00 | 0.08 | 0.08 | 94 | 1027.9 |
| 20260509223018 | 12 | 281 | 0.0 | 0.0 | 0.00 | 0.08 | 0.08 | 94 | 1028.0 |
| 20260509221513 | 12 | 281 | 0.0 | 0.0 | 0.00 | 0.08 | 0.08 | 94 | 1027.9 |
| 20260509220023 | 12 | 281 | 0.0 | 0.0 | 0.00 | 0.08 | 0.08 | 94 | 1027.6 |
| 20260509214507 | 12 | 281 | 0.0 | 0.0 | 0.00 | 0.08 | 0.08 | 94 | 1027.3 |
| 20260509213004 | 12 | 281 | 0.0 | 0.0 | 0.00 | 0.08 | 0.08 | 94 | 1027.0 |
| 20260509211526 | 12 | 281 | 0.0 | 0.0 | 0.00 | 0.08 | 0.08 | 93 | 1026.9 |
| 20260509210022 | 12 | 281 | 0.0 | 0.0 | 0.00 | 0.08 | 0.08 | 94 | 1026.8 |
| 20260509204522 | 12 | 281 | 0.0 | 0.0 | 0.00 | 0.08 | 0.08 | 93 | 1026.6 |
| 20260509203026 | 12 | 281 | 0.0 | 0.0 | 0.00 | 0.08 | 0.08 | 93 | 1026.4 |
| 20260509201515 | 12 | 281 | 0.0 | 0.0 | 0.03 | 0.08 | 0.08 | 93 | 1026.3 |
| 20260509200012 | 12 | 281 | 0.0 | 0.0 | 0.03 | 0.08 | 0.08 | 93 | 1026.2 |
| 20260509194531 | 12 | 281 | 0.0 | 0.0 | 0.03 | 0.08 | 0.08 | 93 | 1026.0 |
| 20260509193026 | 12 | 281 | 0.0 | 0.0 | 0.03 | 0.08 | 0.08 | 93 | 1025.8 |
| 20260509191523 | 12 | 281 | 0.0 | 0.0 | 0.00 | 0.05 | 0.05 | 93 | 1025.7 |
| 20260509190024 | 12 | 281 | 0.0 | 0.0 | 0.00 | 0.05 | 0.05 | 93 | 1025.6 |
| 20260509184519 | 12 | 281 | 0.0 | 0.0 | 0.00 | 0.05 | 0.05 | 93 | 1025.5 |
| 20260509183018 | 12 | 281 | 0.0 | 0.0 | 0.00 | 0.05 | 0.05 | 93 | 1025.5 |
| 20260509181514 | 12 | 281 | 0.0 | 0.0 | 0.00 | 0.05 | 0.05 | 93 | 1025.3 |
| 20260509180028 | 12 | 281 | 0.0 | 0.0 | 0.00 | 0.05 | 0.05 | 93 | 1025.3 |
| 20260509174526 | 12 | 281 | 0.0 | 0.0 | 0.00 | 0.05 | 0.05 | 93 | 1025.3 |
| 20260509173024 | 13 | 281 | 0.0 | 0.0 | 0.03 | 0.05 | 0.05 | 93 | 1025.3 |
| 20260509171523 | 13 | 281 | 0.0 | 0.0 | 0.03 | 0.05 | 0.05 | 93 | 1025.4 |
| 20260509170022 | 13 | 281 | 0.0 | 0.0 | 0.03 | 0.05 | 0.05 | 93 | 1025.4 |
| 20260509164529 | 13 | 281 | 0.0 | 0.0 | 0.03 | 0.05 | 0.05 | 93 | 1025.5 |
| 20260509163032 | 13 | 281 | 0.0 | 0.0 | 0.00 | 0.03 | 0.03 | 92 | 1025.5 |
| 20260509161534 | 13 | 281 | 0.0 | 0.0 | 0.00 | 0.03 | 0.03 | 92 | 1025.7 |
| 20260509160009 | 13 | 281 | 0.0 | 0.0 | 0.00 | 0.03 | 0.03 | 92 | 1025.7 |
| 20260509154506 | 13 | 281 | 0.0 | 0.0 | 0.00 | 0.03 | 0.03 | 92 | 1025.5 |
| 20260509153006 | 13 | 281 | 0.0 | 0.0 | 0.00 | 0.03 | 0.03 | 92 | 1025.5 |
| 20260509151521 | 13 | 281 | 0.0 | 0.0 | 0.00 | 0.03 | 0.03 | 92 | 1025.5 |
| 20260509150018 | 13 | 281 | 0.0 | 0.0 | 0.03 | 0.03 | 0.03 | 93 | 1025.5 |
| 20260509144517 | 13 | 281 | 0.0 | 0.0 | 0.03 | 0.03 | 0.03 | 93 | 1025.4 |
| 20260509143012 | 13 | 281 | 0.0 | 0.0 | 0.03 | 0.03 | 0.03 | 93 | 1025.3 |
| 20260509141511 | 13 | 281 | 0.0 | 0.0 | 0.03 | 0.03 | 0.03 | 93 | 1025.4 |
| 20260509140007 | 13 | 281 | 0.0 | 0.0 | 0.00 | 0.00 | 0.00 | 93 | 1025.5 |
| 20260509134523 | 13 | 281 | 0.0 | 0.0 | 0.00 | 0.00 | 0.00 | 93 | 1025.6 |
| 20260509133022 | 13 | 281 | 0.0 | 0.0 | 0.00 | 0.00 | 0.00 | 93 | 1025.6 |
| 20260509131520 | 13 | 281 | 0.0 | 0.0 | 0.00 | 0.00 | 0.00 | 93 | 1025.6 |
| 20260509130014 | 13 | 281 | 0.0 | 0.0 | 0.00 | 0.00 | 0.00 | 93 | 1025.7 |
| 20260509124514 | 12 | 281 | 0.0 | 0.0 | 0.00 | 0.00 | 0.00 | 92 | 1025.7 |
| 20260509123017 | 12 | 281 | 0.0 | 0.0 | 0.00 | 0.00 | 0.00 | 92 | 1025.8 |
| 20260509121507 | 12 | 281 | 0.0 | 0.0 | 0.00 | 0.00 | 0.00 | 92 | 1025.8 |
| 20260509120027 | 12 | 281 | 0.0 | 0.0 | 0.00 | 0.00 | 0.00 | 92 | 1025.7 |
| 20260509114524 | 12 | 281 | 0.0 | 0.0 | 0.00 | 0.00 | 0.00 | 92 | 1025.7 |
| 20260509113019 | 12 | 281 | 0.0 | 0.0 | 0.00 | 0.00 | 0.00 | 91 | 1025.4 |
| 20260509111517 | 12 | 281 | 0.0 | 0.0 | 0.00 | 0.00 | 0.00 | 92 | 1025.4 |
| 20260509110012 | 12 | 281 | 0.0 | 0.0 | 0.00 | 0.00 | 0.00 | 91 | 1025.4 |
| 20260509104511 | 12 | 281 | 0.0 | 0.0 | 0.00 | 0.00 | 0.00 | 91 | 1025.4 |
| 20260509103026 | 12 | 281 | 0.0 | 0.0 | 0.00 | 0.00 | 0.00 | 90 | 1025.4 |
| 20260509101532 | 12 | 281 | 0.0 | 0.0 | 0.00 | 0.00 | 0.00 | 90 | 1025.4 |
| 20260509100024 | 12 | 281 | 0.0 | 0.0 | 0.00 | 0.00 | 0.00 | 90 | 1025.3 |
| 20260509094526 | 12 | 281 | 0.0 | 0.0 | 0.00 | 0.00 | 0.00 | 89 | 1025.2 |
| 20260509093020 | 12 | 281 | 0.0 | 0.0 | 0.00 | 0.00 | 0.00 | 89 | 1025.1 |
| 20260509091513 | 13 | 281 | 0.0 | 0.0 | 0.00 | 0.00 | 0.00 | 88 | 1025.0 |
| 20260509090030 | 13 | 281 | 0.0 | 0.0 | 0.00 | 0.00 | 0.00 | 88 | 1025.0 |
| 20260509084533 | 13 | 281 | 0.0 | 0.0 | 0.00 | 0.00 | 0.00 | 86 | 1025.0 |